Location: ??????
(56.0120°N, 39.1740°E)
Time: 15:11:36
(UTC+00:00)

Cosmos 2056 Rocket - Pass Details

Date: 14 April 2026
Orbit: 738 x 795 km, 74.0° (Epoch: 17 May)

Event Time Altitude Azimuth Distance (km) Brightness Sun altitude
Exits shadow 21:37:00 43° 120° (ESE) 1,109 4.1 -24.3°
Maximum altitude 21:37:24 44° 107° (ESE) 1,097 4.1 -24.3°
Drops below altitude 10° 21:42:30 10° 37° (NE) 2,378 6.8 -24.2°
Sets 21:45:00 0° 31° (NNE) 3,312 7.8 -24.2°
